Chehalis, WA
on Friday, November 30, 2012

Friday
Previous Day Next Day
Daily Summary
 ActualAverage (KOLM)Record (KOLM)
Temperature
Mean Temperature °F 40°F  
Max Temperature 55°F 46°F 57°F (1951)
Min Temperature 46°F 34°F 9°F (1985)
Degree Days
Heating Degree Days 14 25  
Month to date heating degree days 651  
Since 1 July heating degree days 1445  
Cooling Degree Days 0 0  
Month to date cooling degree days 0  
Year to date cooling degree days 106  
Moisture
Dew Point 48°F   
Average Humidity 93    
Maximum Humidity 100    
Minimum Humidity 77    
Precipitation
Precipitation 1.47 in 0.30 in 2.50 in (1994)
Month to date precipitation 8.63  
Year to date precipitation 42.54  
Wind
Wind Speed 8 mph   
Max Wind Speed 18 mph   
Max Gust Speed 31 mph   
Visibility 6 miles   
Events Rain   

Key: T is trace of precipitation, MM is missing value
Source: NWS Daily Summary
Time(PST)TemperatureDew PointHumidity Pressure Visibility Wind DirectionWind SpeedGust SpeedPrecipitationEvents Conditions
12:15 AM 48.2°F 46.4°F 93% 29.45 in 5.0 miles SSE 3.5 mph - 0.01 in   Overcast
12:35 AM 48.2°F 46.4°F 93% 29.45 in 7.0 miles South 8.1 mph - 0.01 in   Overcast
12:55 AM 48.2°F 46.4°F 93% 29.44 in 7.0 miles SSE 8.1 mph - 0.01 in   Overcast
1:15 AM 48.2°F 46.4°F 93% 29.43 in 5.0 miles SSE 8.1 mph - N/A   Overcast
1:35 AM 48.2°F 46.4°F 93% 29.42 in 5.0 miles SSW 4.6 mph - N/A   Overcast
1:55 AM 46.4°F 46.4°F 100% 29.42 in 10.0 miles South 8.1 mph - N/A   Mostly Cloudy
2:15 AM 48.2°F 46.4°F 93% 29.43 in 8.0 miles SW 6.9 mph - 0.01 in   Overcast
2:35 AM 48.2°F 46.4°F 93% 29.43 in 5.0 miles SSW 5.8 mph - 0.02 in Rain Light Rain
2:55 AM 48.2°F 46.4°F 93% 29.43 in 5.0 miles South 6.9 mph - 0.03 in Rain Light Rain
3:15 AM 48.2°F 46.4°F 93% 29.42 in 5.0 miles South 5.8 mph - N/A Rain Light Rain
3:35 AM 46.4°F 46.4°F 100% 29.41 in 7.0 miles South 6.9 mph - N/A   Mostly Cloudy
3:55 AM 46.4°F 46.4°F 100% 29.40 in 6.0 miles South 8.1 mph - N/A   Mostly Cloudy
4:15 AM 46.4°F 46.4°F 100% 29.40 in 7.0 miles South 8.1 mph - N/A   Overcast
4:35 AM 48.2°F 46.4°F 93% 29.39 in 7.0 miles South 6.9 mph - N/A   Overcast
4:55 AM 46.4°F 46.4°F 100% 29.39 in 8.0 miles SW 4.6 mph - N/A   Mostly Cloudy
5:15 AM 46.4°F 46.4°F 100% 29.39 in 10.0 miles Calm Calm - N/A   Mostly Cloudy
5:35 AM 48.2°F 46.4°F 93% 29.39 in 5.0 miles Calm Calm - 0.02 in Rain Light Rain
5:55 AM 46.4°F 46.4°F 100% 29.39 in 9.0 miles Calm Calm - 0.02 in   Mostly Cloudy
6:15 AM 48.2°F 46.4°F 93% 29.40 in 10.0 miles SW 6.9 mph - N/A   Overcast
6:35 AM 48.2°F 46.4°F 93% 29.40 in 8.0 miles South 11.5 mph 17.3 mph N/A Rain Light Rain
6:55 AM 50.0°F 48.2°F 94% 29.40 in 10.0 miles South 15.0 mph 19.6 mph N/A   Overcast
7:15 AM 50.0°F 48.2°F 94% 29.41 in 10.0 miles South 16.1 mph 23.0 mph N/A   Overcast
7:35 AM 50.0°F 48.2°F 94% 29.42 in 10.0 miles South 15.0 mph 31.1 mph N/A   Overcast
7:55 AM 50.0°F 48.2°F 94% 29.42 in 5.0 miles South 17.3 mph 26.5 mph N/A   Mostly Cloudy
8:15 AM 50.0°F 48.2°F 94% 29.43 in 10.0 miles South 15.0 mph 21.9 mph N/A   Mostly Cloudy
8:35 AM 50.0°F 48.2°F 94% 29.43 in 10.0 miles South 12.7 mph 23.0 mph N/A Rain Light Rain
8:55 AM 50.0°F 48.2°F 94% 29.43 in 10.0 miles South 8.1 mph 16.1 mph N/A Rain Light Rain
9:15 AM 50.0°F 48.2°F 94% 29.44 in 7.0 miles South 13.8 mph - N/A   Mostly Cloudy
9:35 AM 51.8°F 48.2°F 88% 29.44 in 5.0 miles South 16.1 mph 23.0 mph 0.01 in Rain Light Rain
9:55 AM 51.8°F 48.2°F 88% 29.44 in 3.0 miles South 13.8 mph 23.0 mph 0.01 in   Scattered Clouds
10:15 AM 53.6°F 48.2°F 82% 29.45 in 10.0 miles South 17.3 mph 21.9 mph N/A   Mostly Cloudy
10:35 AM 53.6°F 50.0°F 88% 29.45 in 7.0 miles South 15.0 mph 23.0 mph 0.01 in   Mostly Cloudy
11:15 AM 53.6°F 48.2°F 82% 29.46 in 8.0 miles South 11.5 mph - N/A   Overcast
11:35 AM 53.6°F 48.2°F 82% 29.45 in 5.0 miles South 15.0 mph 20.7 mph N/A   Haze
11:55 AM 53.6°F 48.2°F 82% 29.45 in 3.0 miles South 12.7 mph 19.6 mph N/A   Overcast
12:15 PM 55.4°F 48.2°F 77% 29.44 in 5.0 miles South 13.8 mph 23.0 mph N/A   Haze
12:35 PM 53.6°F 48.2°F 82% 29.44 in 9.0 miles South 15.0 mph 23.0 mph N/A   Mostly Cloudy
12:55 PM 53.6°F 48.2°F 82% 29.45 in 4.0 miles South 18.4 mph 24.2 mph 0.01 in Rain Light Rain
1:15 PM 53.6°F 50.0°F 88% 29.45 in 5.0 miles South 16.1 mph 23.0 mph 0.01 in Rain Light Rain
1:35 PM 53.6°F 50.0°F 88% 29.44 in 4.0 miles South 15.0 mph 23.0 mph 0.01 in   Scattered Clouds
2:15 PM 53.6°F 50.0°F 88% 29.44 in 3.0 miles South 11.5 mph - 0.02 in   Scattered Clouds
2:35 PM 51.8°F 50.0°F 94% 29.45 in 4.0 miles SSW 9.2 mph - 0.03 in Rain Light Rain
2:55 PM 51.8°F 50.0°F 94% 29.45 in 3.0 miles SSW 9.2 mph - 0.05 in Rain Light Rain
3:15 PM 51.8°F 50.0°F 94% 29.46 in 1.8 miles SSW 6.9 mph - 0.03 in Rain Rain
3:35 PM 51.8°F 50.0°F 94% 29.45 in 3.0 miles SSW 4.6 mph - 0.08 in Rain Light Rain
3:55 PM 51.8°F 50.0°F 94% 29.46 in 1.5 miles South 8.1 mph - 0.16 in Rain Light Rain
4:15 PM 50.0°F 50.0°F 100% 29.47 in 3.0 miles West 6.9 mph - 0.06 in Rain Heavy Rain
4:35 PM 50.0°F 48.2°F 94% 29.46 in 3.0 miles WSW 3.5 mph - 0.12 in Rain Light Rain
4:55 PM 50.0°F 50.0°F 100% 29.47 in 5.0 miles WSW 3.5 mph - 0.15 in Rain Light Rain
5:15 PM 48.2°F 48.2°F 100% 29.48 in 2.0 miles SW 9.2 mph 16.1 mph 0.20 in Rain Heavy Rain
5:35 PM 48.2°F 46.4°F 93% 29.47 in 3.0 miles South 5.8 mph - 0.28 in Rain Heavy Rain
5:55 PM 48.2°F 46.4°F 93% 29.47 in 5.0 miles SSW 3.5 mph - 0.31 in Rain Light Rain
6:15 PM 48.2°F 48.2°F 100% 29.47 in 5.0 miles Calm Calm - 0.02 in Rain Light Rain
6:35 PM 48.2°F 48.2°F 100% 29.46 in 5.0 miles Calm Calm - 0.02 in Rain Light Rain
6:55 PM 48.2°F 48.2°F 100% 29.45 in 5.0 miles Calm Calm - 0.04 in Rain Light Rain
7:15 PM 50.0°F 50.0°F 100% 29.44 in 4.0 miles SSW 6.9 mph - 0.04 in Rain Light Rain
7:35 PM 50.0°F 48.2°F 94% 29.45 in 3.0 miles SW 4.6 mph - 0.10 in Rain Rain
7:55 PM 50.0°F 50.0°F 100% 29.45 in 3.0 miles WSW 4.6 mph - 0.17 in Rain Light Rain
8:15 PM 50.0°F 50.0°F 100% 29.43 in 4.0 miles Calm Calm - 0.04 in Rain Light Rain
8:35 PM 50.0°F 50.0°F 100% 29.43 in 3.0 miles South 6.9 mph - 0.12 in Rain Rain
8:55 PM 50.0°F 50.0°F 100% 29.41 in 4.0 miles SSE 8.1 mph - 0.15 in   Overcast
9:15 PM 50.0°F 50.0°F 100% 29.40 in 3.0 miles South 12.7 mph - 0.05 in Rain Rain
9:35 PM 50.0°F 50.0°F 100% 29.41 in 3.0 miles South 13.8 mph 19.6 mph 0.12 in   Mist
9:55 PM 50.0°F 48.2°F 94% 29.42 in 3.0 miles SW 10.4 mph 16.1 mph 0.20 in Rain Rain
10:15 PM 50.0°F 48.2°F 94% 29.44 in 3.0 miles SW 11.5 mph 21.9 mph 0.06 in Rain Rain
10:35 PM 48.2°F 46.4°F 93% 29.40 in 7.0 miles SSW 8.1 mph 19.6 mph 0.12 in Rain Light Rain
10:55 PM 50.0°F 46.4°F 87% 29.42 in 7.0 miles SSW 12.7 mph 19.6 mph 0.12 in   Overcast
11:15 PM 50.0°F 46.4°F 87% 29.41 in 5.0 miles South 13.8 mph - N/A   Overcast
11:35 PM 50.0°F 46.4°F 87% 29.42 in 7.0 miles South 10.4 mph 19.6 mph 0.01 in   Overcast
11:55 PM 50.0°F 48.2°F 94% 29.43 in 6.0 miles South 12.7 mph 20.7 mph 0.02 in   Overcast
Moon Phase
Nov. 30 Dec. 06 Dec. 13 Dec. 20 Dec. 28
Sunrise:07:35 AM (PST) Moon Rise:06:26 PM (PST)11/30
Sunset:04:26 PM (PST) Moon Set:09:10 AM (PST)11/30

Copyright © 2014 The Weather Underground, Inc.